THORAD DELTA 1 DEB, 8153

Orbit data source: Space-Track

THORAD DELTA 1 DEB, 8153 is space debris in SSO originally from a launch on Fri, 15 Nov 1974 UTC launched from the Air Force Western Test Range (AFWTR). Debris objects in space refer to the collection of defunct objects orbiting the Earth. Examples of debris include non-operational satellites, rocket bodies, and fragments generated from explosions, collisions, or faulty payload assembly.

Loading next visibility...
Identifier
8153, 1974-089T
Orbit
SSO
Country
Flag of USUS
Related business
Manufacturer
Unknown
Mission
Spacecraft
Bus & Motor
Unknown
Mass
Unknown
Launch date (UTC)
1974-11-15 (52 years ago)
Launch vehicle
Unknown
Launch site
Air Force Western Test Range (AFWTR)
Object type
Payload
Rocket body
Debris
Shape & HBR
Unknown shape, 0.1 m
Radar Cross Section
Medium (>0.1 m² and <1 m²)

Expand to show TLE details & history
Last TLE update: 1 week ago

TLE from 1 week ago
0 THORAD DELTA 1 DEB
1 08153U 74089T   26165.06898171 -.00000126  00000-0 -88178-3 0  9991
2 08153 100.9145 205.8154 0282422   0.3474  54.9855 12.09318924277924
Epoch: 2026-06-14T01:39Z
TLE epoch observation values (Epoch: 2026-06-14T01:39:20.019Z)
Latitude
56.50528°
Longitude
-98.24918°
Altitude
1,523.116 km
Speed
7.165 km/s
True Right ascension
12h 35m 50s
True Declination
56° 21' 44"
Sunlit
Object was in daylight at epoch
Visualization orbit readout
Latitude
Unknown
Longitude
Unknown
Altitude
Unknown
Speed
Unknown
Apparent Right ascension
Unknown
Apparent Declination
Unknown
Sunlit
N/A
Visualization observer readout
Local Sidereal Time
01:06:00
Azimuth
Unknown
Elevation
Unknown
Doppler factor
Unknown
Orbital elements
Apogee altitude
1,863.321 km
Perigee altitude
1,410.593 km
Semi-major axis
8,015.094 km
Eccentricity
0.02824
Inclination
100.9145°
RAAN
205.8154°
Arg. of periapsis
0.3474°
True anomaly
57.68981°
Mean anomaly
54.9855°
Eccentric anomaly
56.33224°
Mean motion
3.02469 °/min
Orbital period
119.02 mins
BSTAR
-0.00088178
Loading maneuver chart data...
Computing Atmospheric mass density...

Documentation

Showing up to 5 results
|